sat.trackr.live / text

‹ back to catalog

STARLINK-33888

NORAD 63860 · 2025-093AA

PAYLOAD ACTIVE UNKNOWN

§ Identity

Operator
Country
US
Launch date
2025-05-07
Launch site
AFETR
Launch vehicle
Mass (kg)
RCS (m²)

Purposes: comms

External: N2YO · Heavens-Above · Gunter

§ Orbital elements

Epoch: 2026-05-24T22:41:38.319360Z

Period
94.27 min
Inclination
43.0051°
Eccentricity
0.0001524
Mean motion
15.27603620 rev/d
Perigee alt
481.9 km
Apogee alt
484.0 km
Semi-major
6,861.1 km
B*
5.4389e-4
RAAN
7.3068°
Arg perigee
267.6444°
Mean anomaly
92.4234°
Rev number
5,963

§ Raw data

STARLINK-338881 63860U 25093AA  26144.94558240  .00014745  00000+0  54389-3 0  99982 63860  43.0051   7.3068 0001524 267.6444  92.4234 15.27603620 59636

JSON: /api/v1/satellites/63860 · /tle

For live sub-satellite position, see the globe view (requires WebGL).

§ Visibility from observer

Set your observer location to see the next 7 days of passes ≥ 10°. The values pass through the URL so the page stays shareable.

No JS? Fill the form by hand. The geolocation button needs JavaScript.